Miscellaneous Local Product
Issued by NWS Hastings, NE

Home | Current Version | Previous Version | Graphics & Text | Print | Product List | Glossary On
Versions: 1 2 3 4 5 6 7 8 9 10 11 12 13 14 15 16 17 18 19 20 21 22 23 24 25 26 27 28 29 30 31 32 33 34 35 36 37 38 39 40 41 42 43 44 45 46 47 48 49 50
000
AXUS43 KGID 271302
MISGRI

GID CWA HOURLY WEATHER ROUNDUP
NATIONAL WEATHER SERVICE HASTINGS NE
800 AM CDT MON JUL 27 2015

NOTE: "FAIR" INDICATES FEW OR NO CLOUDS BELOW 12,000 FEET WITH NO
SIGNIFICANT WEATHER AND/OR OBSTRUCTIONS TO VISIBILITY.

...SOUTH CENTRAL NEBRASKA...

CITY           SKY/WX    TMP DP  RH WIND       PRES   REMARKS
GRAND ISLAND   CLOUDY    74  67  78 CALM      29.91R
HASTINGS       CLOUDY    74  64  71 S5        29.90S
KEARNEY        CLOUDY    72  64  78 E6        29.90S
ORD            CLOUDY    72  66  81 S3        29.90R
YORK           CLOUDY    73  68  83 S7        29.91R
AURORA         CLOUDY    75  70  85 SE6       29.92R
LEXINGTON      PTSUNNY   71  66  84 E5        29.89S
HOLDREGE       PTSUNNY   69  64  85 CALM      29.90R
HEBRON         CLOUDY    73  66  79 CALM      29.89F

...NEBRASKA PANHANDLE...

CITY           SKY/WX    TMP DP  RH WIND       PRES   REMARKS
CHADRON        SUNNY     70  60  70 SE7       29.83F
ALLIANCE       MOSUNNY   59  57  93 E6        29.91R FOG
SCOTTSBLUFF    PTSUNNY   61  60  97 SE12      29.89F FOG
SIDNEY         SUNNY     63  62  97 S9        29.92F

...WESTERN AND NORTH CENTRAL NEBRASKA...

CITY           SKY/WX    TMP DP  RH WIND       PRES   REMARKS
VALENTINE      SUNNY     68  61  78 E5        29.89R
AINSWORTH      MOSUNNY   68  65  91 E12       29.92R
ONEILL         CLOUDY    73  68  84 SE5       29.90S
BROKEN BOW     PTSUNNY   70  65  84 E3        29.91R
IMPERIAL       MOSUNNY   65  63  93 SE5       29.91R
NORTH PLATTE   MOSUNNY   66  63  90 CALM      29.90R
MCCOOK         MOSUNNY   68  65  90 SE5       29.89R

...EASTERN NEBRASKA...

CITY           SKY/WX    TMP DP  RH WIND       PRES   REMARKS
NORFOLK        CLOUDY    78  75  90 E10       29.89R FOG
SO SIOUX CITY  CLOUDY    73  67  81 SE8       29.87S
TEKAMAH        CLOUDY    78  76  93 NE10      29.88F
COLUMBUS       PTSUNNY   77  72  83 S7        29.89R
ALBION         FOG       76  73  93 E5        29.89S VSB 1
OMAHA EPPLEY   CLOUDY    79  76  90 SE12      29.88R
OFFUTT AFB     CLOUDY    78  76  94 E6        29.88S
MILLARD        CLOUDY    79  76  91 SE6       29.88S
LINCOLN        CLOUDY    77  71  82 S6        29.91R
BEATRICE       CLOUDY    74  70  86 CALM      29.91R
FALLS CITY     PTSUNNY   78  74  87 S5        29.89R

...NORTHERN KANSAS...

CITY           SKY/WX    TMP DP  RH WIND       PRES   REMARKS
GOODLAND       PTSUNNY   67  64  90 S18G28    29.95R
HILL CITY      PTSUNNY   72  65  78 S7        29.89R
NORTON         SUNNY     72  64  78 CALM      29.89R
PHILLIPSBURG   SUNNY     73  70  88 SW3       29.88R
SMITH CENTER   SUNNY     70  66  88 E12       29.86S
HAYS           PTSUNNY   72  61  68 S12       29.88R
RUSSELL        PTSUNNY   73  68  84 S10       29.86R
CONCORDIA      CLOUDY    73  69  87 SE3       29.84F
SALINA         CLOUDY    74  69  85 SE13      29.84F
TOPEKA         MOSUNNY   77  74  90 SE3       29.90F



USA.gov is the U.S. government's official web portal to all federal, state and local government web resources and services.